Regional Weather Roundup
Issued by NWS

Home | Current Version | Previous Version | Text Only | Print | Product List | Glossary Off
Versions: 1 2 3 4 5 6 7 8 9 10 11 12 13 14 15 16 17 18 19 20 21 22 23 24 25 26 27 28 29 30 31 32 33 34 35 36 37 38 39 40 41 42 43 44 45 46 47 48 49 50

972
ASUS43 KOAX 250910
RWRNE

WEATHER ROUNDUP FOR NEBRASKA
NATIONAL WEATHER SERVICE OMAHA NE
400 AM CDT SUN SEP 25 2016

NOTES: SATELLITE DATA IS BEING USED TO AUGMENT CLOUD COVER ABOVE
       12000 FEET.
       "FAIR" INDICATES FEW OR NO CLOUDS BELOW 12,000 FEET WITH NO
       SIGNIFICANT WEATHER AND/OR OBSTRUCTIONS TO VISIBILITY.

  * THESE STATIONS DO NOT REPORT WEATHER SUCH AS RAIN...SNOW OR FOG.

NEZ001>004-019>022-054>056-251000-
NEBRASKA PANHANDLE

CITY           SKY/WX    TMP DP  RH WIND       PRES   REMARKS
SCOTTSBLUFF    CLEAR     42  38  85 NW7       30.30R
ALLIANCE       CLEAR     46  40  79 W16       30.25R
CHADRON        CLEAR     50  41  71 W15       30.24R
KIMBALL        CLEAR     43  39  85 W10       30.32R
SIDNEY         CLEAR     44  38  79 NW14      30.29R
$$

NEZ057>060-069>072-079>082-251000-
SOUTHWEST NEBRASKA

CITY           SKY/WX    TMP DP  RH WIND       PRES   REMARKS
NORTH PLATTE   CLEAR     53  42  66 W10       30.20R
IMPERIAL       CLEAR     50  40  68 NW14      30.24R
LEXINGTON      CLEAR     50  42  73 NW12      30.14F
MCCOOK         CLEAR     49  42  77 W9        30.19R
OGALLALA       CLEAR     49  41  75 W6        30.24R
$$

NEZ005>010-023>029-035>040-094-251000-
NORTH CENTRAL NEBRASKA

CITY           SKY/WX    TMP DP  RH WIND       PRES   REMARKS
VALENTINE      CLOUDY    53  41  63 W14       30.11S
AINSWORTH      CLEAR     52  43  71 W12       30.11R
BROKEN BOW     CLEAR     54  42  64 NW12      30.13R
O`NEILL        CLEAR     54  42  63 W10       30.08R
ORD            CLEAR     55  41  59 NW16G28   30.08S
THEDFORD       CLEAR     52  42  69 W9        30.16R
$$

NEZ041-046>049-061>064-073>077-083>087-251000-
SOUTH CENTRAL NEBRASKA

CITY           SKY/WX    TMP DP  RH WIND       PRES   REMARKS
GRAND ISLAND   CLEAR     56  43  61 NW15      30.08S
AURORA         CLOUDY    55  47  76 NW9       30.08R
HASTINGS       CLEAR     55  43  63 NW12      30.10S
HEBRON         CLOUDY    59  51  76 N10       30.07R
HOLDREGE       CLEAR     54  41  62 NW8       30.12S
KEARNEY *      CLEAR     55  39  54 NW9       30.11S
YORK           PTCLDY    54  50  87 NW7       30.07R
$$

NEZ011>018-030>034-042>045-251000-
NORTHEAST NEBRASKA

CITY           SKY/WX    TMP DP  RH WIND       PRES   REMARKS
NORFOLK        PTCLDY    53  45  74 W8        30.05R
ALBION         CLEAR     55  44  66 NW13      30.07S
BLAIR          CLOUDY    68  66  96 W8        30.00R
FREMONT        MOCLDY    60  51  72 NW12      30.03R
TEKAMAH        CLOUDY    61  52  72 NW16      30.00R
WAYNE          CLOUDY    56  47  73 NW6       30.04R
$$

NEZ050>053-065>068-078-088>093-251000-
SOUTHEAST NEBRASKA

CITY           SKY/WX    TMP DP  RH WIND       PRES   REMARKS
LINCOLN        CLOUDY    64  54  69 N18       30.04R
OMAHA EPPLEY   LGT RAIN  69  64  84 W5        29.98R
BEATRICE       CLOUDY    65  64  98 CALM      30.02S
FALLS CITY     PTCLDY    69  68  96 S7        30.00F
NEBRASKA CITY  HVY RAIN  63  61  92 W5        30.02R
PLATTSMOUTH    RAIN      65  62  91 CALM      29.99S
$$

NEZ044-045-051>053-067-251000-
OMAHA AREA

CITY           SKY/WX    TMP DP  RH WIND       PRES   REMARKS
OMAHA EPPLEY   LGT RAIN  69  64  84 W5        29.98R
BLAIR          CLOUDY    68  66  96 W8        30.00R
FREMONT        MOCLDY    60  51  72 NW12      30.03R
MILLARD        CLOUDY    66  65  94 W5        30.00R
OFFUTT AFB     CLOUDY    66  66 100 S2        29.97F
PLATTSMOUTH    RAIN      65  62  91 CALM      29.99S
WAHOO          FAIR      62  56  82 NW13G24   30.02R
$$




USA.gov is the U.S. government's official web portal to all federal, state and local government web resources and services.